Simultaneous Nadir Overpasses (SNOs) Predictions

Prediction of SNOs between GOES-17 and LANDSAT-8 Satellite Orbit:

Table of predicted SNOs for the next 14.0 days since TLE Epoch: 3/23/2024
Index Date Time (GOES-17) GOES-17 Lat,Lon LANDSAT-8 Lat,Lon Distance(km) Time Diff (sec)
1 03/24/2024 17:00:11 -0.00,-104.68 -0.63,-101.80 327.53 80
2 03/25/2024 05:21:33 0.00,-104.68 -0.51,-106.98 262.16 80
3 03/27/2024 05:06:40 0.00,-104.68 0.16,-104.03 75.37 80
4 03/29/2024 04:54:24 -0.00,-104.68 0.74,-101.05 412.82 80
5 03/29/2024 17:15:38 0.00,-104.68 0.31,-106.21 173.82 80
6 03/31/2024 17:06:02 0.00,-104.67 -0.31,-103.24 163.36 80
7 04/01/2024 05:27:25 0.00,-104.68 -0.80,-108.42 426.05 80
8 04/03/2024 05:15:09 0.01,-104.67 -0.14,-105.46 89.18 80
9 04/05/2024 05:00:12 0.01,-104.66 0.49,-102.48 248.35 80
10 04/05/2024 17:21:26 -0.01,-104.65 0.61,-107.63 338.63 80
